This demonstration page uses our WeatherBlox Daily Observations layout. Learn more.

Left ArrowRight Arrow

34.02893, -84.19858

Hourly Observations for October 23, 2015

Temp ( °F °C ) Dew Point ( °F °C ) Humidity (%) Winds ( mph kmh ) Pressure ( in mb ) Visibility ( mi km ) Precip ( " mm )
12:27 am 00:27 Clear with Mist and Fog 57 13.9 56 13.3 96 96 Calm 30.24 1024 2 3 0.00 0.00
12:35 am 00:35 Clear with Mist and Fog 57 13.9 57 13.9 100 100 Calm 30.24 1024 4 6 0.00 0.00
12:44 am 00:44 Clear with Mist and Fog 55 13 54 12 94 94 Calm 30.24 1024 2 3 0.00 0.00
12:53 am 00:53 Clear with Mist and Fog 57 13.9 57 13.9 100 100 Calm 30.21 1023 3 5 0.00 0.00
1:53 am 01:53 Clear with Mist and Fog 55 12.8 55 12.8 100 100 Calm 30.20 1023 5 8 0.00 0.00
2:03 am 02:03 Clear with Mist and Fog 55 13 55 13 100 100 Calm 30.21 1023 2 3 0.00 0.00
2:12 am 02:12 Clear with Mist and Fog 55 13 55 13 100 100 Calm 30.21 1023 1 1 0.00 0.00
2:17 am 02:17 Clear with Mist and Fog 54 12.2 54 12.2 100 100 Calm 30.21 1023 3 5 0.00 0.00
2:36 am 02:36 Clear with Mist and Fog 54 12 54 12 100 100 Calm 30.21 1023 2 2 0.00 0.00
2:44 am 02:44 Clear with Mist and Fog 54 12 54 12 100 100 Calm 30.21 1023 1 1 0.00 0.00
2:48 am 02:48 Clear with Mist and Fog 54 12 54 12 100 100 Calm 30.21 1023 3 4 0.00 0.00
2:53 am 02:53 Clear 53 11.7 53 11.7 100 100 Calm 30.19 1022 7 11 0.00 0.00
3:29 am 03:29 Clear with Mist and Fog 54 12 54 12 100 100 Calm 30.21 1023 1 1 0.00 0.00
3:38 am 03:38 Clear with Mist and Fog 54 12 54 12 100 100 Calm 30.21 1023 3 4 0.00 0.00
3:45 am 03:45 Clear 54 12.2 54 12.2 100 100 Calm 30.21 1023 7 11 0.00 0.00
3:53 am 03:53 Clear with Mist and Fog 54 12.2 54 12.2 100 100 Calm 30.18 1022 6 10 0.00 0.00
4:11 am 04:11 Clear with Mist and Fog 54 12.2 54 12.2 100 100 Calm 30.21 1023 2 3 0.00 0.00
4:22 am 04:22 Clear with Mist and Fog 54 12.2 54 12.2 100 100 Calm 30.21 1023 3 5 0.00 0.00
4:53 am 04:53 Clear with Mist and Fog 53 11.7 53 11.7 100 100 Calm 30.18 1022 5 8 0.00 0.00
5:09 am 05:09 Clear with Mist and Fog 52 11.1 52 11.1 100 100 Calm 30.21 1023 2 3 0.00 0.00
5:20 am 05:20 Clear with Mist and Fog 54 12 54 12 100 100 Calm 30.21 1023 4 6 0.00 0.00
5:53 am 05:53 Clear with Mist and Fog 53 11.7 52 11.1 96 96 Calm 30.19 1022 5 8 0.00 0.00
6:08 am 06:08 Clear with Mist and Fog 52 11 52 11 100 100 Calm 30.21 1023 2 2 0.00 0.00
6:18 am 06:18 Clear with Mist and Fog 52 11 52 11 100 100 Calm 30.21 1023 4 6 0.00 0.00
6:53 am 06:53 Clear 53 11.7 53 11.7 100 100 Calm 30.21 1023 7 11 0.00 0.00
7:53 am 07:53 Sunny 52 11.1 52 11.1 100 100 Calm 30.22 1023 7 11 0.00 0.00
8:53 am 08:53 Sunny 58 14.4 56 13.3 93 93 Calm 30.22 1024 7 11 0.00 0.00
9:53 am 09:53 Sunny 65 18.3 59 15 81 81 Calm 30.22 1024 10 16 0.00 0.00
10:53 am 10:53 Sunny 72 22.2 60 15.6 66 66 Calm 30.21 1023 10 16 0.00 0.00
11:53 am 11:53 Sunny 74 23.3 60 15.6 62 62 VRB 3 6 30.21 1023 10 16 0.00 0.00
12:53 pm 12:53 Mostly Cloudy 79 26.1 60 15.6 52 52 N 3 6 30.17 1022 10 16 0.00 0.00
1:53 pm 13:53 Sunny 78 25.6 60 15.6 54 54 VRB 3 6 30.15 1021 10 16 0.00 0.00
2:53 pm 14:53 Sunny 75 23.9 58 14.4 55 55 SW 5 7 30.14 1021 10 16 0.00 0.00
3:53 pm 15:53 Mostly Cloudy 79 26.1 58 14.4 49 49 Calm 30.12 1020 10 16 0.00 0.00
4:53 pm 16:53 Sunny 78 25.6 57 13.9 48 48 SW 6 9 30.11 1020 10 16 0.00 0.00
5:53 pm 17:53 Sunny 75 23.9 58 14.4 55 55 SE 3 6 30.11 1020 10 16 0.00 0.00
6:53 pm 18:53 Sunny 68 20 61 16.1 78 78 S 3 6 30.13 1020 10 16 0.00 0.00
7:53 pm 19:53 Clear 64 17.8 61 16.1 90 90 Calm 30.15 1021 10 16 0.00 0.00
8:53 pm 20:53 Clear 62 16.7 60 15.6 93 93 Calm 30.16 1021 10 16 0.00 0.00
9:53 pm 21:53 Clear 60 15.6 59 15 96 96 Calm 30.16 1021 10 16 0.00 0.00
10:53 pm 22:53 Clear 59 15 58 14.4 96 96 Calm 30.15 1021 9 14 0.00 0.00
11:53 pm 23:53 Clear 57 13.9 57 13.9 100 100 Calm 30.16 1021 8 13 0.00 0.00

Powered by AerisWeather